Year,Month,Day,Hour,Minute,Value (Times are PST for temperature in C)
2011,07,02,00,00,11.90
2011,07,02,00,01,11.90
2011,07,02,00,02,11.90
2011,07,02,00,03,11.90
2011,07,02,00,04,11.90
2011,07,02,00,05,11.80
2011,07,02,00,06,11.80
2011,07,02,00,07,11.80
2011,07,02,00,08,11.80
2011,07,02,00,09,11.80
2011,07,02,00,10,11.70
2011,07,02,00,11,11.70
2011,07,02,00,12,11.70
2011,07,02,00,18,11.60
2011,07,02,00,19,11.60
2011,07,02,00,20,11.60
2011,07,02,00,21,11.60
2011,07,02,00,22,11.60
2011,07,02,00,23,11.60
2011,07,02,00,24,11.60
2011,07,02,00,25,11.60
2011,07,02,00,26,11.50
2011,07,02,00,27,11.50
2011,07,02,00,28,11.50
2011,07,02,00,29,11.50
2011,07,02,00,30,11.50
2011,07,02,00,31,11.50
2011,07,02,00,32,11.50
2011,07,02,00,33,11.50
2011,07,02,00,34,11.40
2011,07,02,00,35,11.40
2011,07,02,00,36,11.40
2011,07,02,00,37,11.40
2011,07,02,00,38,11.40
2011,07,02,00,39,11.40
2011,07,02,00,40,11.40
2011,07,02,00,41,11.30
2011,07,02,00,42,11.30
2011,07,02,00,43,11.30
2011,07,02,00,44,11.30
2011,07,02,00,45,11.30
2011,07,02,00,46,11.30
2011,07,02,00,47,11.20
2011,07,02,00,48,11.20
2011,07,02,00,49,11.20
2011,07,02,00,50,11.20
2011,07,02,00,51,11.10
2011,07,02,00,52,11.10
2011,07,02,00,53,11.10
2011,07,02,00,54,11.00
2011,07,02,00,55,11.00
2011,07,02,00,56,11.00
2011,07,02,00,57,10.90
2011,07,02,00,58,10.90
2011,07,02,00,59,10.90
2011,07,02,01,00,10.80
2011,07,02,01,01,10.80
2011,07,02,01,02,10.80
2011,07,02,01,03,10.80
2011,07,02,01,04,10.80
2011,07,02,01,05,10.80
2011,07,02,01,06,10.70
2011,07,02,01,07,10.70
2011,07,02,01,08,10.70
2011,07,02,01,09,10.70
2011,07,02,01,10,10.70
2011,07,02,01,11,10.70
2011,07,02,01,12,10.70
2011,07,02,01,13,10.70
2011,07,02,01,14,10.60
2011,07,02,01,15,10.60
2011,07,02,01,16,10.60
2011,07,02,01,17,10.60
2011,07,02,01,18,10.60
2011,07,02,01,19,10.60
2011,07,02,01,20,10.60
2011,07,02,01,21,10.60
2011,07,02,01,22,10.60
2011,07,02,01,23,10.50
2011,07,02,01,24,10.50
2011,07,02,01,25,10.50
2011,07,02,01,26,10.50
2011,07,02,01,27,10.50
2011,07,02,01,28,10.50
2011,07,02,01,29,10.50
2011,07,02,01,30,10.40
2011,07,02,01,31,10.40
2011,07,02,01,32,10.40
2011,07,02,01,33,10.40
2011,07,02,01,34,10.40
2011,07,02,01,35,10.40
2011,07,02,01,36,10.40
2011,07,02,01,37,10.40
2011,07,02,01,38,10.40
2011,07,02,01,39,10.30
2011,07,02,01,40,10.30
2011,07,02,01,41,10.30
2011,07,02,01,42,10.30
2011,07,02,01,43,10.30
2011,07,02,01,44,10.30
2011,07,02,01,45,10.20
2011,07,02,01,46,10.20
2011,07,02,01,47,10.20
2011,07,02,01,48,10.10
2011,07,02,01,49,10.10
2011,07,02,01,50,10.10
2011,07,02,01,51,10.10
2011,07,02,01,52,10.10
2011,07,02,01,53,10.00
2011,07,02,01,54,10.00
2011,07,02,01,55,10.00
2011,07,02,01,56,9.90
2011,07,02,01,57,9.90
2011,07,02,01,58,9.90
2011,07,02,01,59,9.90
2011,07,02,02,00,9.90
2011,07,02,02,01,9.80
2011,07,02,02,02,9.80
2011,07,02,02,03,9.80
2011,07,02,02,04,9.80
2011,07,02,02,05,9.70
2011,07,02,02,06,9.70
2011,07,02,02,07,9.70
2011,07,02,02,08,9.70
2011,07,02,02,09,9.60
2011,07,02,02,10,9.60
2011,07,02,02,11,9.60
2011,07,02,02,12,9.60
2011,07,02,02,13,9.60
2011,07,02,02,14,9.50
2011,07,02,02,15,9.50
2011,07,02,02,16,9.50
2011,07,02,02,17,9.40
2011,07,02,02,18,9.40
2011,07,02,02,19,9.40
2011,07,02,02,20,9.40
2011,07,02,02,21,9.40
2011,07,02,02,22,9.40
2011,07,02,02,23,9.30
2011,07,02,02,24,9.30
2011,07,02,02,25,9.30
2011,07,02,02,26,9.30
2011,07,02,02,27,9.30
2011,07,02,02,28,9.30
2011,07,02,02,29,9.30
2011,07,02,02,30,9.20
2011,07,02,02,31,9.20
2011,07,02,02,32,9.20
2011,07,02,02,33,9.20
2011,07,02,02,34,9.20
2011,07,02,02,35,9.20
2011,07,02,02,36,9.20
2011,07,02,02,37,9.10
2011,07,02,02,38,9.10
2011,07,02,02,39,9.10
2011,07,02,02,40,9.10
2011,07,02,02,41,9.10
2011,07,02,02,42,9.10
2011,07,02,02,43,9.00
2011,07,02,02,44,9.00
2011,07,02,02,45,9.00
2011,07,02,02,46,9.00
2011,07,02,02,47,9.00
2011,07,02,02,48,9.00
2011,07,02,02,49,9.00
2011,07,02,02,50,9.00
2011,07,02,02,51,8.90
2011,07,02,02,52,8.90
2011,07,02,02,53,8.90
2011,07,02,02,54,8.90
2011,07,02,02,55,8.90
2011,07,02,02,56,8.90
2011,07,02,02,57,8.90
2011,07,02,02,58,8.90
2011,07,02,02,59,8.90
2011,07,02,03,00,8.90
2011,07,02,03,01,8.90
2011,07,02,03,02,8.90
2011,07,02,03,03,8.80
2011,07,02,03,04,8.80
2011,07,02,03,05,8.80
2011,07,02,03,06,8.80
2011,07,02,03,07,8.80
2011,07,02,03,08,8.80
2011,07,02,03,09,8.80
2011,07,02,03,10,8.80
2011,07,02,03,11,8.80
2011,07,02,03,12,8.80
2011,07,02,03,13,8.80
2011,07,02,03,14,8.80
2011,07,02,03,15,8.70
2011,07,02,03,16,8.70
2011,07,02,03,17,8.70
2011,07,02,03,18,8.70
2011,07,02,03,19,8.70
2011,07,02,03,20,8.70
2011,07,02,03,21,8.70
2011,07,02,03,22,8.70
2011,07,02,03,23,8.60
2011,07,02,03,24,8.60
2011,07,02,03,25,8.60
2011,07,02,03,26,8.60
2011,07,02,03,27,8.60
2011,07,02,03,28,8.60
2011,07,02,03,29,8.50
2011,07,02,03,30,8.50
2011,07,02,03,31,8.50
2011,07,02,03,32,8.50
2011,07,02,03,33,8.50
2011,07,02,03,34,8.40
2011,07,02,03,35,8.40
2011,07,02,03,36,8.40
2011,07,02,03,37,8.40
2011,07,02,03,38,8.40
2011,07,02,03,39,8.30
2011,07,02,03,40,8.30
2011,07,02,03,41,8.30
2011,07,02,03,42,8.30
2011,07,02,03,43,8.30
2011,07,02,03,44,8.30
2011,07,02,03,45,8.30
2011,07,02,03,46,8.30
2011,07,02,03,47,8.30
2011,07,02,03,48,8.30
2011,07,02,03,49,8.30
2011,07,02,03,50,8.30
2011,07,02,03,51,8.30
2011,07,02,03,52,8.30
2011,07,02,03,53,8.30
2011,07,02,03,54,8.30
2011,07,02,03,55,8.30
2011,07,02,03,56,8.20
2011,07,02,03,57,8.20
2011,07,02,03,58,8.20
2011,07,02,03,59,8.20
2011,07,02,04,00,8.20
2011,07,02,04,01,8.20
2011,07,02,04,02,8.20
2011,07,02,04,03,8.20
2011,07,02,04,04,8.20
2011,07,02,04,05,8.20
2011,07,02,04,06,8.20
2011,07,02,04,07,8.20
2011,07,02,04,08,8.20
2011,07,02,04,09,8.20
2011,07,02,04,10,8.20
2011,07,02,04,11,8.20
2011,07,02,04,12,8.20
2011,07,02,04,13,8.10
2011,07,02,04,14,8.10
2011,07,02,04,15,8.10
2011,07,02,04,16,8.10
2011,07,02,04,17,8.10
2011,07,02,04,18,8.00
2011,07,02,04,19,8.00
2011,07,02,04,20,8.00
2011,07,02,04,21,8.00
2011,07,02,04,22,8.00
2011,07,02,04,23,7.90
2011,07,02,04,24,7.90
2011,07,02,04,25,7.90
2011,07,02,04,26,7.90
2011,07,02,04,27,7.90
2011,07,02,04,28,7.90
2011,07,02,04,29,7.90
2011,07,02,04,30,7.80
2011,07,02,04,31,7.80
2011,07,02,04,32,7.90
2011,07,02,04,33,7.90
2011,07,02,04,34,7.90
2011,07,02,04,35,7.90
2011,07,02,04,36,7.90
2011,07,02,04,37,7.90
2011,07,02,04,38,7.90
2011,07,02,04,39,7.90
2011,07,02,04,40,7.90
2011,07,02,04,41,7.90
2011,07,02,04,42,7.90
2011,07,02,04,43,7.90
2011,07,02,04,44,7.80
2011,07,02,04,45,7.80
2011,07,02,04,46,7.80
2011,07,02,04,47,7.80
2011,07,02,04,48,7.80
2011,07,02,04,49,7.80
2011,07,02,04,50,7.80
2011,07,02,04,51,7.80
2011,07,02,04,52,7.80
2011,07,02,04,53,7.80
2011,07,02,04,54,7.70
2011,07,02,04,55,7.70
2011,07,02,04,56,7.70
2011,07,02,04,57,7.70
2011,07,02,04,58,7.70
2011,07,02,04,59,7.60
2011,07,02,05,00,7.60
2011,07,02,05,01,7.60
2011,07,02,05,02,7.60
2011,07,02,05,03,7.60
2011,07,02,05,04,7.60
2011,07,02,05,05,7.60
2011,07,02,05,06,7.60
2011,07,02,05,07,7.60
2011,07,02,05,08,7.60
2011,07,02,05,09,7.60
2011,07,02,05,10,7.60
2011,07,02,05,11,7.60
2011,07,02,05,12,7.60
2011,07,02,05,13,7.60
2011,07,02,05,14,7.60
2011,07,02,05,15,7.60
2011,07,02,05,16,7.60
2011,07,02,05,17,7.60
2011,07,02,05,18,7.60
2011,07,02,05,19,7.60
2011,07,02,05,20,7.60
2011,07,02,05,21,7.60
2011,07,02,05,22,7.60
2011,07,02,05,23,7.60
2011,07,02,05,24,7.60
2011,07,02,05,25,7.60
2011,07,02,05,26,7.60
2011,07,02,05,27,7.60
2011,07,02,05,28,7.60
2011,07,02,05,29,7.60
2011,07,02,05,30,7.50
2011,07,02,05,31,7.50
2011,07,02,05,32,7.50
2011,07,02,05,33,7.40
2011,07,02,05,34,7.40
2011,07,02,05,35,7.40
2011,07,02,05,36,7.40
2011,07,02,05,37,7.40
2011,07,02,05,38,7.30
2011,07,02,05,39,7.30
2011,07,02,05,40,7.30
2011,07,02,05,41,7.30
2011,07,02,05,42,7.30
2011,07,02,05,43,7.30
2011,07,02,05,44,7.30
2011,07,02,05,45,7.30
2011,07,02,05,46,7.20
2011,07,02,05,47,7.20
2011,07,02,05,48,7.20
2011,07,02,05,49,7.20
2011,07,02,05,50,7.20
2011,07,02,05,51,7.20
2011,07,02,05,52,7.20
2011,07,02,05,53,7.20
2011,07,02,05,54,7.20
2011,07,02,05,55,7.20
2011,07,02,05,56,7.20
2011,07,02,05,57,7.20
2011,07,02,05,58,7.20
2011,07,02,05,59,7.20
2011,07,02,06,00,7.20
2011,07,02,06,01,7.20
2011,07,02,06,02,7.20
2011,07,02,06,03,7.20
2011,07,02,06,04,7.20
2011,07,02,06,05,7.30
2011,07,02,06,06,7.30
2011,07,02,06,07,7.30
2011,07,02,06,08,7.30
2011,07,02,06,09,7.40
2011,07,02,06,10,7.40
2011,07,02,06,11,7.50
2011,07,02,06,12,7.50
2011,07,02,06,13,7.60
2011,07,02,06,14,7.60
2011,07,02,06,15,7.60
2011,07,02,06,16,7.60
2011,07,02,06,17,7.70
2011,07,02,06,18,7.70
2011,07,02,06,19,7.70
2011,07,02,06,20,7.70
2011,07,02,06,21,7.70
2011,07,02,06,22,7.70
2011,07,02,06,23,7.70
2011,07,02,06,24,7.80
2011,07,02,06,25,7.80
2011,07,02,06,26,7.80
2011,07,02,06,27,7.80
2011,07,02,06,28,7.80
2011,07,02,06,29,7.90
2011,07,02,06,30,7.90
2011,07,02,06,31,7.90
2011,07,02,06,32,7.90
2011,07,02,06,33,8.00
2011,07,02,06,34,8.00
2011,07,02,06,35,8.10
2011,07,02,06,36,8.10
2011,07,02,06,37,8.20
2011,07,02,06,38,8.20
2011,07,02,06,39,8.30
2011,07,02,06,40,8.30
2011,07,02,06,41,8.40
2011,07,02,06,42,8.40
2011,07,02,06,43,8.40
2011,07,02,06,44,8.50
2011,07,02,06,45,8.50
2011,07,02,06,46,8.60
2011,07,02,06,47,8.60
2011,07,02,06,48,8.70
2011,07,02,06,49,8.70
2011,07,02,06,50,8.80
2011,07,02,06,51,8.80
2011,07,02,06,52,8.90
2011,07,02,06,53,9.00
2011,07,02,06,54,9.10
2011,07,02,06,55,9.10
2011,07,02,06,56,9.20
2011,07,02,06,57,9.30
2011,07,02,06,58,9.40
2011,07,02,06,59,9.50
2011,07,02,07,00,9.50
2011,07,02,07,01,9.60
2011,07,02,07,02,9.70
2011,07,02,07,03,9.80
2011,07,02,07,04,9.90
2011,07,02,07,05,10.00
2011,07,02,07,06,10.10
2011,07,02,07,07,10.30
2011,07,02,07,08,10.40
2011,07,02,07,09,10.40
2011,07,02,07,10,10.50
2011,07,02,07,11,10.60
2011,07,02,07,12,10.60
2011,07,02,07,13,10.70
2011,07,02,07,14,10.80
2011,07,02,07,15,10.90
2011,07,02,07,16,11.10
2011,07,02,07,17,11.20
2011,07,02,07,18,11.40
2011,07,02,07,19,11.60
2011,07,02,07,20,11.80
2011,07,02,07,21,12.00
2011,07,02,07,22,12.10
2011,07,02,07,23,12.30
2011,07,02,07,24,12.50
2011,07,02,07,25,12.70
2011,07,02,07,26,12.80
2011,07,02,07,27,12.90
2011,07,02,07,28,13.00
2011,07,02,07,29,13.10
2011,07,02,07,30,13.20
2011,07,02,07,31,13.30
2011,07,02,07,32,13.50
2011,07,02,07,33,13.60
2011,07,02,07,34,13.80
2011,07,02,07,35,13.90
2011,07,02,07,36,14.00
2011,07,02,07,37,14.10
2011,07,02,07,38,14.20
2011,07,02,07,39,14.30
2011,07,02,07,40,14.40
2011,07,02,07,41,14.50
2011,07,02,07,42,14.60
2011,07,02,07,43,14.70
2011,07,02,07,44,14.90
2011,07,02,07,45,15.00
2011,07,02,07,46,15.00
2011,07,02,07,47,15.20
2011,07,02,07,48,15.30
2011,07,02,07,49,15.40
2011,07,02,07,50,15.50
2011,07,02,07,51,15.50
2011,07,02,07,52,15.50
2011,07,02,07,53,15.40
2011,07,02,07,54,15.30
2011,07,02,07,55,15.20
2011,07,02,07,56,15.10
2011,07,02,07,57,15.10
2011,07,02,07,58,15.00
2011,07,02,07,59,15.00
2011,07,02,08,00,15.00
2011,07,02,08,01,15.00
2011,07,02,08,02,15.00
2011,07,02,08,03,15.10
2011,07,02,08,04,15.10
2011,07,02,08,05,15.20
2011,07,02,08,06,15.20
2011,07,02,08,07,15.30
2011,07,02,08,08,15.30
2011,07,02,08,09,15.30
2011,07,02,08,10,15.40
2011,07,02,08,11,15.60
2011,07,02,08,12,15.70
2011,07,02,08,13,15.80
2011,07,02,08,14,15.90
2011,07,02,08,15,16.10
2011,07,02,08,16,16.10
2011,07,02,08,17,16.20
2011,07,02,08,18,16.20
2011,07,02,08,19,16.30
2011,07,02,08,20,16.30
2011,07,02,08,21,16.30
2011,07,02,08,22,16.30
2011,07,02,08,23,16.30
2011,07,02,08,24,16.30
2011,07,02,08,25,16.30
2011,07,02,08,26,16.30
2011,07,02,08,27,16.40
2011,07,02,08,28,16.50
2011,07,02,08,29,16.60
2011,07,02,08,30,16.70
2011,07,02,08,31,16.70
2011,07,02,08,32,16.80
2011,07,02,08,33,16.80
2011,07,02,08,34,16.90
2011,07,02,08,35,17.00
2011,07,02,08,36,17.10
2011,07,02,08,37,17.10
2011,07,02,08,38,17.10
2011,07,02,08,39,17.20
2011,07,02,08,40,17.20
2011,07,02,08,41,17.30
2011,07,02,08,42,17.30
2011,07,02,08,43,17.30
2011,07,02,08,44,17.30
2011,07,02,08,45,17.30
2011,07,02,08,46,17.30
2011,07,02,08,47,17.20
2011,07,02,08,48,17.20
2011,07,02,08,49,17.20
2011,07,02,08,50,17.10
2011,07,02,08,51,17.10
2011,07,02,08,52,17.00
2011,07,02,08,53,17.00
2011,07,02,08,54,17.00
2011,07,02,08,55,17.00
2011,07,02,08,56,17.00
2011,07,02,08,57,17.00
2011,07,02,08,58,16.90
2011,07,02,08,59,16.80
2011,07,02,09,00,16.80
2011,07,02,09,01,16.80
2011,07,02,09,02,16.80
2011,07,02,09,03,16.80
2011,07,02,09,04,16.80
2011,07,02,09,05,16.80
2011,07,02,09,06,16.80
2011,07,02,09,07,16.80
2011,07,02,09,08,16.90
2011,07,02,09,09,16.90
2011,07,02,09,10,17.00
2011,07,02,09,11,17.10
2011,07,02,09,12,17.20
2011,07,02,09,13,17.30
2011,07,02,09,14,17.40
2011,07,02,09,15,17.50
2011,07,02,09,16,17.40
2011,07,02,09,17,17.40
2011,07,02,09,18,17.40
2011,07,02,09,19,17.40
2011,07,02,09,20,17.50
2011,07,02,09,21,17.60
2011,07,02,09,22,17.70
2011,07,02,09,23,17.80
2011,07,02,09,24,17.90
2011,07,02,09,25,17.90
2011,07,02,09,26,17.90
2011,07,02,09,27,18.00
2011,07,02,09,28,17.90
2011,07,02,09,29,17.90
2011,07,02,09,30,18.00
2011,07,02,09,31,18.00
2011,07,02,09,32,18.00
2011,07,02,09,33,18.00
2011,07,02,09,34,17.90
2011,07,02,09,35,17.90
2011,07,02,09,36,17.90
2011,07,02,09,37,17.90
2011,07,02,09,38,17.90
2011,07,02,09,39,17.80
2011,07,02,09,40,17.80
2011,07,02,09,41,17.90
2011,07,02,09,42,17.90
2011,07,02,09,43,18.00
2011,07,02,09,44,18.00
2011,07,02,09,45,18.10
2011,07,02,09,46,18.20
2011,07,02,09,47,18.20
2011,07,02,09,48,18.20
2011,07,02,09,49,18.20
2011,07,02,09,50,18.10
2011,07,02,09,51,18.10
2011,07,02,09,52,18.20
2011,07,02,09,53,18.20
2011,07,02,09,54,18.30
2011,07,02,09,55,18.20
2011,07,02,09,56,18.20
2011,07,02,09,57,18.00
2011,07,02,09,58,18.00
2011,07,02,09,59,18.00
2011,07,02,10,00,18.10
2011,07,02,10,01,18.10
2011,07,02,10,02,18.00
2011,07,02,10,03,18.00
2011,07,02,10,04,17.90
2011,07,02,10,05,17.90
2011,07,02,10,06,17.80
2011,07,02,10,07,17.80
2011,07,02,10,08,17.80
2011,07,02,10,09,17.80
2011,07,02,10,10,17.70
2011,07,02,10,11,17.70
2011,07,02,10,12,17.70
2011,07,02,10,13,17.70
2011,07,02,10,14,17.80
2011,07,02,10,15,17.90
2011,07,02,10,16,18.00
2011,07,02,10,17,18.10
2011,07,02,10,18,18.20
2011,07,02,10,19,18.30
2011,07,02,10,20,18.30
2011,07,02,10,21,18.30
2011,07,02,10,22,18.30
2011,07,02,10,23,18.40
2011,07,02,10,24,18.40
2011,07,02,10,25,18.40
2011,07,02,10,26,18.40
2011,07,02,10,27,18.30
2011,07,02,10,28,18.30
2011,07,02,10,29,18.30
2011,07,02,10,30,18.30
2011,07,02,10,31,18.30
2011,07,02,10,32,18.20
2011,07,02,10,33,18.20
2011,07,02,10,34,18.30
2011,07,02,10,35,18.30
2011,07,02,10,36,18.40
2011,07,02,10,37,18.50
2011,07,02,10,38,18.60
2011,07,02,10,39,18.70
2011,07,02,10,40,18.70
2011,07,02,10,41,18.70
2011,07,02,10,42,18.80
2011,07,02,10,43,18.80
2011,07,02,10,44,18.80
2011,07,02,10,45,18.90
2011,07,02,10,46,18.90
2011,07,02,10,47,19.00
2011,07,02,10,48,19.10
2011,07,02,10,49,19.20
2011,07,02,10,50,19.20
2011,07,02,10,51,19.10
2011,07,02,10,52,19.10
2011,07,02,10,53,19.00
2011,07,02,10,54,19.00
2011,07,02,10,55,19.00
2011,07,02,10,56,19.00
2011,07,02,10,57,18.90
2011,07,02,10,58,18.80
2011,07,02,10,59,18.70
2011,07,02,11,00,18.60
2011,07,02,11,01,18.40
2011,07,02,11,02,18.30
2011,07,02,11,03,18.20
2011,07,02,11,04,18.20
2011,07,02,11,05,18.20
2011,07,02,11,06,18.20
2011,07,02,11,07,18.20
2011,07,02,11,08,18.20
2011,07,02,11,09,18.20
2011,07,02,11,10,18.20
2011,07,02,11,11,18.20
2011,07,02,11,12,18.20
2011,07,02,11,13,18.20
2011,07,02,11,14,18.20
2011,07,02,11,15,18.20
2011,07,02,11,16,18.10
2011,07,02,11,17,18.20
2011,07,02,11,18,18.20
2011,07,02,11,19,18.30
2011,07,02,11,20,18.30
2011,07,02,11,21,18.30
2011,07,02,11,22,18.50
2011,07,02,11,23,18.60
2011,07,02,11,24,18.70
2011,07,02,11,25,18.80
2011,07,02,11,26,19.00
2011,07,02,11,27,19.10
2011,07,02,11,28,19.10
2011,07,02,11,29,19.00
2011,07,02,11,30,18.80
2011,07,02,11,31,18.70
2011,07,02,11,32,18.60
2011,07,02,11,33,18.60
2011,07,02,11,34,18.50
2011,07,02,11,35,18.50
2011,07,02,11,36,18.60
2011,07,02,11,37,18.60
2011,07,02,11,38,18.70
2011,07,02,11,39,18.70
2011,07,02,11,40,18.70
2011,07,02,11,41,18.80
2011,07,02,11,42,18.80
2011,07,02,11,43,18.80
2011,07,02,11,44,18.90
2011,07,02,11,45,18.90
2011,07,02,11,46,18.70
2011,07,02,11,47,18.70
2011,07,02,11,48,18.60
2011,07,02,11,49,18.60
2011,07,02,11,50,18.60
2011,07,02,11,51,18.60
2011,07,02,11,52,18.60
2011,07,02,11,53,18.60
2011,07,02,11,54,18.70
2011,07,02,11,55,18.80
2011,07,02,11,56,18.90
2011,07,02,11,57,18.90
2011,07,02,11,58,18.80
2011,07,02,11,59,18.70
2011,07,02,12,00,18.60
2011,07,02,12,01,18.60
2011,07,02,12,02,18.60
2011,07,02,12,03,18.50
2011,07,02,12,04,18.60
2011,07,02,12,05,18.70
2011,07,02,12,06,18.60
2011,07,02,12,07,18.50
2011,07,02,12,08,18.50
2011,07,02,12,09,18.40
2011,07,02,12,10,18.40
2011,07,02,12,11,18.40
2011,07,02,12,12,18.30
2011,07,02,12,13,18.30
2011,07,02,12,14,18.30
2011,07,02,12,15,18.40
2011,07,02,12,16,18.40
2011,07,02,12,17,18.40
2011,07,02,12,18,18.30
2011,07,02,12,19,18.40
2011,07,02,12,20,18.40
2011,07,02,12,21,18.50
2011,07,02,12,22,18.60
2011,07,02,12,23,18.80
2011,07,02,12,24,19.00
2011,07,02,12,25,19.20
2011,07,02,12,26,19.30
2011,07,02,12,27,19.40
2011,07,02,12,28,19.50
2011,07,02,12,29,19.40
2011,07,02,12,30,19.20
2011,07,02,12,31,19.00
2011,07,02,12,32,18.90
2011,07,02,12,33,18.90
2011,07,02,12,34,18.90
2011,07,02,12,35,18.90
2011,07,02,12,36,18.90
2011,07,02,12,37,18.90
2011,07,02,12,38,18.90
2011,07,02,12,39,19.00
2011,07,02,12,40,19.10
2011,07,02,12,41,19.10
2011,07,02,12,42,19.10
2011,07,02,12,43,19.10
2011,07,02,12,44,19.20
2011,07,02,12,45,19.30
2011,07,02,12,46,19.40
2011,07,02,12,47,19.30
2011,07,02,12,48,19.20
2011,07,02,12,49,19.00
2011,07,02,12,50,18.90
2011,07,02,12,51,18.80
2011,07,02,12,52,18.80
2011,07,02,12,53,18.60
2011,07,02,12,54,18.40
2011,07,02,12,55,18.30
2011,07,02,12,56,18.30
2011,07,02,12,57,18.20
2011,07,02,12,58,18.20
2011,07,02,12,59,18.20
2011,07,02,13,00,18.30
2011,07,02,13,01,18.40
2011,07,02,13,02,18.50
2011,07,02,13,03,18.70
2011,07,02,13,04,18.70
2011,07,02,13,05,18.80
2011,07,02,13,06,18.90
2011,07,02,13,07,19.00
2011,07,02,13,08,19.20
2011,07,02,13,09,19.30
2011,07,02,13,10,19.30
2011,07,02,13,11,19.10
2011,07,02,13,12,19.10
2011,07,02,13,13,19.10
2011,07,02,13,14,19.00
2011,07,02,13,15,18.90
2011,07,02,13,16,18.80
2011,07,02,13,17,18.70
2011,07,02,13,18,18.70
2011,07,02,13,19,18.70
2011,07,02,13,20,18.80
2011,07,02,13,21,18.80
2011,07,02,13,22,19.00
2011,07,02,13,23,19.20
2011,07,02,13,24,19.30
2011,07,02,13,25,19.40
2011,07,02,13,26,19.40
2011,07,02,13,27,19.50
2011,07,02,13,28,19.60
2011,07,02,13,29,19.70
2011,07,02,13,30,19.70
2011,07,02,13,31,19.80
2011,07,02,13,32,19.80
2011,07,02,13,33,19.80
2011,07,02,13,34,20.00
2011,07,02,13,35,20.10
2011,07,02,13,36,20.20
2011,07,02,13,37,20.30
2011,07,02,13,38,20.30
2011,07,02,13,39,20.20
2011,07,02,13,40,20.00
2011,07,02,13,41,20.00
2011,07,02,13,42,20.00
2011,07,02,13,43,19.90
2011,07,02,13,44,19.90
2011,07,02,13,45,19.90
2011,07,02,13,46,20.00
2011,07,02,13,47,20.10
2011,07,02,13,48,20.20
2011,07,02,13,49,20.40
2011,07,02,13,50,20.50
2011,07,02,13,51,20.40
2011,07,02,13,52,20.50
2011,07,02,13,53,20.50
2011,07,02,13,54,20.60
2011,07,02,13,55,20.60
2011,07,02,13,56,20.60
2011,07,02,13,57,20.60
2011,07,02,13,58,20.70
2011,07,02,13,59,20.80
2011,07,02,14,00,20.90
2011,07,02,14,01,21.00
2011,07,02,14,02,21.10
2011,07,02,14,03,21.30
2011,07,02,14,04,21.30
2011,07,02,14,05,21.30
2011,07,02,14,06,21.40
2011,07,02,14,07,21.50
2011,07,02,14,08,21.70
2011,07,02,14,09,21.90
2011,07,02,14,10,22.10
2011,07,02,14,11,22.30
2011,07,02,14,12,22.40
2011,07,02,14,13,22.40
2011,07,02,14,14,22.40
2011,07,02,14,15,22.30
2011,07,02,14,16,22.30
2011,07,02,14,17,22.30
2011,07,02,14,18,22.40
2011,07,02,14,19,22.50
2011,07,02,14,20,22.50
2011,07,02,14,21,22.40
2011,07,02,14,22,22.20
2011,07,02,14,23,22.20
2011,07,02,14,24,22.20
2011,07,02,14,25,22.20
2011,07,02,14,26,22.30
2011,07,02,14,27,22.30
2011,07,02,14,28,22.50
2011,07,02,14,29,22.60
2011,07,02,14,30,22.70
2011,07,02,14,31,22.70
2011,07,02,14,32,22.80
2011,07,02,14,33,22.90
2011,07,02,14,34,23.10
2011,07,02,14,35,23.30
2011,07,02,14,36,23.50
2011,07,02,14,37,23.60
2011,07,02,14,38,23.70
2011,07,02,14,39,23.80
2011,07,02,14,40,23.90
2011,07,02,14,41,24.00
2011,07,02,14,42,24.20
2011,07,02,14,43,24.30
2011,07,02,14,44,24.40
2011,07,02,14,45,24.50
2011,07,02,14,46,24.50
2011,07,02,14,47,24.50
2011,07,02,14,48,24.50
2011,07,02,14,49,24.40
2011,07,02,14,50,24.30
2011,07,02,14,51,24.20
2011,07,02,14,52,24.20
2011,07,02,14,53,24.10
2011,07,02,14,54,24.00
2011,07,02,14,55,24.00
2011,07,02,14,56,24.00
2011,07,02,14,57,23.90
2011,07,02,14,58,23.80
2011,07,02,14,59,23.80
2011,07,02,15,00,23.90
2011,07,02,15,01,24.00
2011,07,02,15,02,23.90
2011,07,02,15,03,23.80
2011,07,02,15,04,23.80
2011,07,02,15,05,23.60
2011,07,02,15,06,23.50
2011,07,02,15,07,23.60
2011,07,02,15,08,23.70
2011,07,02,15,09,23.80
2011,07,02,15,10,23.80
2011,07,02,15,11,23.80
2011,07,02,15,12,23.80
2011,07,02,15,13,23.80
2011,07,02,15,14,23.80
2011,07,02,15,15,23.70
2011,07,02,15,16,23.70
2011,07,02,15,17,23.80
2011,07,02,15,18,23.70
2011,07,02,15,19,23.80
2011,07,02,15,20,23.80
2011,07,02,15,21,23.80
2011,07,02,15,22,23.90
2011,07,02,15,23,24.00
2011,07,02,15,24,24.10
2011,07,02,15,25,24.10
2011,07,02,15,26,24.00
2011,07,02,15,27,24.10
2011,07,02,15,28,24.10
2011,07,02,15,29,24.10
2011,07,02,15,30,24.10
2011,07,02,15,31,24.00
2011,07,02,15,32,24.00
2011,07,02,15,33,24.10
2011,07,02,15,34,24.20
2011,07,02,15,35,24.10
2011,07,02,15,36,24.00
2011,07,02,15,37,24.00
2011,07,02,15,38,23.90
2011,07,02,15,39,23.70
2011,07,02,15,40,23.80
2011,07,02,15,41,23.80
2011,07,02,15,42,23.70
2011,07,02,15,43,23.70
2011,07,02,15,44,23.60
2011,07,02,15,45,23.60
2011,07,02,15,46,23.80
2011,07,02,15,47,23.80
2011,07,02,15,48,23.80
2011,07,02,15,49,23.70
2011,07,02,15,50,23.70
2011,07,02,15,51,23.70
2011,07,02,15,52,23.80
2011,07,02,15,53,23.80
2011,07,02,15,54,23.90
2011,07,02,15,55,23.90
2011,07,02,15,56,23.90
2011,07,02,15,57,24.00
2011,07,02,15,58,24.10
2011,07,02,15,59,24.20
2011,07,02,16,00,24.30
2011,07,02,16,01,24.30
2011,07,02,16,02,24.30
2011,07,02,16,03,24.30
2011,07,02,16,04,24.20
2011,07,02,16,05,24.20
2011,07,02,16,06,24.30
2011,07,02,16,07,24.30
2011,07,02,16,08,24.50
2011,07,02,16,09,24.60
2011,07,02,16,10,24.70
2011,07,02,16,11,24.70
2011,07,02,16,12,24.70
2011,07,02,16,13,24.70
2011,07,02,16,14,24.70
2011,07,02,16,15,24.70
2011,07,02,16,16,24.60
2011,07,02,16,17,24.60
2011,07,02,16,18,24.50
2011,07,02,16,19,24.50
2011,07,02,16,20,24.40
2011,07,02,16,21,24.30
2011,07,02,16,22,24.30
2011,07,02,16,23,24.30
2011,07,02,16,24,24.20
2011,07,02,16,25,24.20
2011,07,02,16,26,24.10
2011,07,02,16,27,24.00
2011,07,02,16,28,24.00
2011,07,02,16,29,23.90
2011,07,02,16,30,24.00
2011,07,02,16,31,24.10
2011,07,02,16,32,24.00
2011,07,02,16,33,24.00
2011,07,02,16,34,23.90
2011,07,02,16,35,24.00
2011,07,02,16,36,24.00
2011,07,02,16,37,24.00
2011,07,02,16,38,24.00
2011,07,02,16,39,24.00
2011,07,02,16,40,24.10
2011,07,02,16,41,24.20
2011,07,02,16,42,24.30
2011,07,02,16,43,24.30
2011,07,02,16,44,24.30
2011,07,02,16,45,24.30
2011,07,02,16,46,24.20
2011,07,02,16,47,24.00
2011,07,02,16,48,23.90
2011,07,02,16,49,23.80
2011,07,02,16,50,23.60
2011,07,02,16,51,23.60
2011,07,02,16,52,23.50
2011,07,02,16,53,23.40
2011,07,02,16,54,23.40
2011,07,02,16,55,23.30
2011,07,02,16,56,23.30
2011,07,02,16,57,23.30
2011,07,02,16,58,23.40
2011,07,02,16,59,23.50
2011,07,02,17,00,23.60
2011,07,02,17,01,23.60
2011,07,02,17,02,23.60
2011,07,02,17,03,23.60
2011,07,02,17,04,23.60
2011,07,02,17,05,23.60
2011,07,02,17,06,23.70
2011,07,02,17,07,23.70
2011,07,02,17,08,23.70
2011,07,02,17,09,23.70
2011,07,02,17,10,23.80
2011,07,02,17,11,23.80
2011,07,02,17,12,23.80
2011,07,02,17,13,23.80
2011,07,02,17,14,23.70
2011,07,02,17,15,23.60
2011,07,02,17,16,23.40
2011,07,02,17,17,23.30
2011,07,02,17,18,23.20
2011,07,02,17,19,23.20
2011,07,02,17,20,23.10
2011,07,02,17,21,23.00
2011,07,02,17,22,22.90
2011,07,02,17,23,22.80
2011,07,02,17,24,22.70
2011,07,02,17,25,22.60
2011,07,02,17,26,22.60
2011,07,02,17,27,22.60
2011,07,02,17,28,22.60
2011,07,02,17,29,22.60
2011,07,02,17,30,22.60
2011,07,02,17,31,22.50
2011,07,02,17,32,22.40
2011,07,02,17,33,22.30
2011,07,02,17,34,22.30
2011,07,02,17,35,22.20
2011,07,02,17,36,22.20
2011,07,02,17,37,22.20